Powrót do katalogu

DELTA 1 DEB

AktywnyUNKNOWN
NORAD 20349·DEBRIS·🇺🇸 United States

Wystrzelony Jul 29, 1976 z Vandenberg Space Force Base

Loading…

Następne Przeloty (najbliższe 24 godziny)

TLE

ŚwieżeSource: Space-Track

Epoka: Sep 14, 2026, 11:41 UTC

1 20349U 76077FR  26257.48699269 -.00000459  00000-0 -74505-2 0  9993
2 20349 102.5799 351.7187 0625003  49.8871 324.9709 11.33784473565908

Śledź DELTA 1 DEB w czasie rzeczywistym z AllMySat

Download on the App Store